User: anonymous   Login
Location: Caltech
(34.1382°N, 118.1253°W)
Time: 01:56:24
(UTC-08:00)
Language:

Cosmos 1606 - Orbit

View from above orbital plane
View from above orbital plane
View from above satellite
View from above satellite

Ground track
Ground track

The orbit data is extracted from the following two-line orbital elements,

1 15369U 84111A   18050.61239641 +.00000611 +00000-0 +30035-4 0  9998
2 15369 082.5254 239.1056 0019111 118.0200 242.2969 15.15926101817947
Epoch (UTC): 19 February 2018 14:41:51
Eccentricity: 0.0019111
inclination: 82.5254°
perigee height: 505 km
apogee height: 531 km
right ascension of ascending node: 239.1056°
argument of perigee: 118.0200°
revolutions per day: 15.15926101
mean anomaly at epoch: 242.2969°
orbit number at epoch: 81794

The dashed part of the orbit path shows where the satellite is in the earth's shadow,  

DLR